www.pogodaiklimat.ru

Погода и климат >> Архив погоды >> Россия >> Крым >> Алушта


АРХИВ ПОГОДЫ в Алуште

Время (UTC), дата Ветер
(напр.,м/с)
 
Видим.   Явления Облачность Т
(С)
Тd
(С)
f
(%)
Тe
(С)
Тes
(С)
Комфортность P
(гПа)
Po
(гПа)
Тmin
(С)
Tmax
(С)
R
(мм)
R24
(мм)
S
(см)
00 18.03 СЗ 4 20 км ясно +6.7 -1.7 55 +4 +4 по сезону 1020.0 1010.7
03 18.03 штиль 0 20 км ясно +6.2 -0.6 62 +6 +6 по сезону 1020.0 1010.8 +6.0
06 18.03 В 1 50 км ясно +9.6 +2.9 63 +9 +14 тепло 1021.7 1012.6 +6.0
09 18.03 В 4 50 км 3/3 1500 м
[Sc]
+10.5 +6.4 76 +8 +14 по сезону 1023.9 1014.7
12 18.03 ЮВ 1 50 км 1/1 1500 м
[Sc]
+11.3 +6.6 73 +11 +19 тепло 1023.8 1014.7
15 18.03 В 1 50 км ясно +10.1 +7.0 81 +10 +10 тепло 1023.9 1014.7
18 18.03 З 1 20 км ясно +6.5 +3.8 83 +5 +5 по сезону 1025.3 1016.0 +11.8
21 18.03 СЗ 1 20 км 3/0
[Ci sp]
+6.4 +4.1 85 +5 +5 по сезону 1025.3 1016.0
00 19.03 СЗ 1 20 км ясно +6.3 +4.6 89 +5 +5 по сезону 1025.3 1016.0
03 19.03 З 1 20 км ясно +5.6 +3.2 85 +4 +4 по сезону 1023.7 1014.4 +5.3
06 19.03 В 1 50 км ясно +10.2 +1.4 54 +10 +14 тепло 1024.0 1014.9 +5.3
09 19.03 В 2 50 км ясно +11.0 +2.3 55 +10 +21 опасность
простуды
1025.2 1016.0
12 19.03 ЮВ 2 50 км ясно +11.3 +5.6 68 +10 +18 тепло 1023.8 1014.7
15 19.03 штиль 0 50 км ясно +9.6 +6.0 78 +9 +10 тепло 1023.9 1014.7
18 19.03 СЗ 2 20 км ясно +8.9 +1.3 59 +8 +8 тепло 1025.2 1016.0 +11.6
21 19.03 штиль 0 20 км ясно +8.6 +1.5 61 +8 +8 тепло 1023.9 1014.7
00 20.03 штиль 0 20 км ясно +8.6 +2.4 65 +8 +8 тепло 1023.9 1014.7
03 20.03 СЗ 2 20 км ясно +9.8 +4.2 68 +8 +8 тепло 1022.3 1013.2 +8.4
06 20.03 В 1 20 км 1/1 1500 м
[Cu med, cong]
+9.9 +6.3 78 +10 +14 тепло 1022.7 1013.6 +8.4
09 20.03 Ю 1 20 км 1/1 1500 м
[Cu med, cong]
+11.3 +6.0 70 +11 +23 опасность
простуды
1023.8 1014.7
12 20.03 Ю 2 20 км 1/1 1500 м
[Cu med, cong]
+11.5 +7.2 75 +10 +18 тепло 1023.8 1014.7
15 20.03 В 1 20 км 3/0
[Ci sp]
+9.3 +7.2 87 +9 +9 тепло 1023.9 1014.7
18 20.03 штиль 0 20 км ясно +9.0 +7.0 87 +8 +8 тепло 1025.2 1016.0 +11.6
21 20.03 СЗ 1 20 км ясно +8.6 +7.4 92 +8 +8 тепло 1025.2 1016.0
00 21.03 СЗ 2 20 км ясно +8.3 +5.8 84 +6 +6 по сезону 1025.3 1016.0
03 21.03 СЗ 3 20 км 4/3 1500 м
[Sc Ci sp]
+10.0 +3.1 62 +8 +8 тепло 1025.0 1015.9 +8.0
06 21.03 З 1 20 км 1/0
[Ci sp]
+12.4 +2.4 50 +13 +17 тепло 1026.1 1017.0 +8.0
09 21.03 Ю 4 20 км 8/6 1500 м
[Cb calv Ac trans Ci sp]
+12.2 +6.3 67 +10 +13 тепло 1027.8 1018.7
12 21.03 З 3 50 км 8/4 1500 м
[Cb calv Ac trans Ci sp]
+11.6 +1.8 51 +10 +12 тепло 1027.9 1018.7
15 21.03 З 4 20 км 8/8 1500 м
[Cb calv]
+11.3 -0.8 43 +9 +10 тепло 1027.9 1018.7
18 21.03 СЗ 2 20 км 8/0
[Ac trans Ci sp]
+8.9 -2.8 44 +8 +8 тепло 1028.0 1018.8 +13.0
21 21.03 З 1 20 км 1/0
[Ci fib]
+7.4 -1.6 53 +7 +7 по сезону 1029.3 1020.0
00 22.03 З 3 20 км 10/0
[Ac lent]
+8.0 -3.2 45 +6 +6 по сезону 1029.3 1020.0
03 22.03 СЗ 3 20 км 9/0
[Ac trans Cc]
+7.3 -1.9 52 +5 +5 по сезону 1028.0 1018.7 +7.0
06 22.03 Ю 2 50 км 9/3 1500 м
[Cu Sc Ac trans Cc]
+9.8 +1.2 55 +9 +9 тепло 1027.9 1018.7 +7.0
09 22.03 В 1 20 км 10/3 1500 м
[Cb calv Ac trans]
+10.8 +4.9 67 +11 +11 тепло 1026.5 1017.3
12 22.03 В 3 20 км 10/3 1500 м
[Cb calv Ac trans Cs]
+11.0 +6.9 76 +9 +9 по сезону 1025.2 1016.0
15 22.03 ЮЗ 1 20 км 10/1 1500 м
[Cb calv Ac lent Ci sp]
+9.2 +6.6 84 +9 +9 по сезону 1023.9 1014.7
18 22.03 СЗ 3 20 км 8/3 1500 м
[Cb calv Ci sp]
+9.2 -1.1 48 +7 +7 по сезону 1021.7 1012.6 +12.6
21 22.03 СЗ 3 20 км 8/8 1500 м
[Cb calv]
+10.6 +3.4 61 +9 +9 тепло 1021.1 1012.0
00 23.03 СЗ 2 20 км 10/10 1500 м
[Cb calv]
+8.6 +4.0 73 +7 +7 по сезону 1019.9 1010.7
03 23.03 З 3
{11}
20 км 3/3 1500 м
[Cb calv Ac lent]
+8.0 -4.8 40 +6 +6 по сезону 1017.8 1008.6 +7.7
06 23.03 З 5 50 км 3/3 1500 м
[Sc diur, vesp]
+8.5 -1.1 51 +5 +7 по сезону 1018.1 1009.0 +7.7
09 23.03 СЗ 4
{11}
50 км 6/6 1500 м
[Cu med, cong]
+10.1 -3.9 37 +8 +11 по сезону 1018.4 1009.3
12 23.03 С 3
{10}
50 км 8/8 1500 м
[Cb calv]
+8.6 -4.2 40 +7 +8 по сезону 1016.8 1007.7
15 23.03 СЗ 3
{11}
50 км 8/8 1500 м
[Cb calv]
+6.1 -4.2 48 +4 +4 по сезону 1018.3 1009.1
18 23.03 СЗ 2
{10}
20 км {ливн. осадки} 8/8 1000 м
[Cb calv]
+4.4 -0.4 71 +2 +2 прохладно 1020.1 1010.8 +10.4 0.0
21 23.03 СЗ 1 20 км 9/9 1500 м
[Cb calv]
+5.0 -1.2 64 +4 +4 по сезону 1021.3 1012.0
00 24.03 СЗ 2 20 км 8/8 1500 м
[Cb calv]
+4.5 -0.9 68 +2 +2 по сезону 1021.4 1012.0
03 24.03 З 2 20 км 9/9 1500 м
[Cb calv]
+4.9 -0.4 69 +3 +3 по сезону 1020.5 1011.2 +4.3 0.0
06 24.03 З 2 50 км 6/6 1500 м
[Cb calv]
+6.2 -2.3 54 +4 +6 по сезону 1020.7 1011.5 +4.3
09 24.03 СЗ 3
{10}
7 баллов 41 1012.0
12 24.03 З 3
{10}
50 км 9/5 1500 м
[Cu Sc Ac trans]
+9.0 -6.1 34 +7 +9 по сезону 1019.5 1010.4
15 24.03 З 2 5 баллов 41 1010.7
18 24.03 З 2 20 км 3/3 1500 м
[Sc]
+5.5 -2.9 55 +4 +4 по сезону 1020.0 1010.8 +9.2
21 24.03 СЗ 2 ясно 57 1010.7

 

Местоположение метеостанции Алушта (Крым, Россия): широта 44.67 долгота 34.40 высота над уровнем моря 75 м.

В архиве по умолчанию представлена погода в Алуште за последнюю неделю. Архивные данные за месяц целиком и за предыдущие месяцы, начиная с января 2011 года, Вы можете получить, выбрав интересующий диапазон дат из раскрывающегося списка и нажав кнопку "Ввод!".


*Определитесь, кто Вы:
робот инопланетянин человек

Внимание! Время в таблицах - всемирное. Для получения местного времени необходимо прибавить поправку, которая равна 3 ч.

Смотрите также архив погоды в соседних городах и на ближайших метеорологических станциях:

Погода на Ангарском Перевале (Крым, Россия) (10 км)
Погода в Никитском саду (Крым, Россия) (20 км)
Погода в Ялте (Крым, Россия) (28 км)
Погода на Ай-Петри (Крым, Россия) (34 км)
Погода в Симферополе город (Крым, Россия) (38 км)
Погода в Почтовом (Крым, Россия) (40 км)
Погода в Белогорске (Крым, Россия) (45 км)
Погода в Симферополе (Крым, Россия) (52 км)
Погода в Карадаге (Крым, Россия) (68 км)
Погода в Севастополе (город Севастополь, Россия) (69 км)

Пояснения к столбцам:

Ветер - указаны скорость ветра в м/с - средняя за 10 мин, порывы в срок и между сроками (в фигурных скобках) и направление, откуда дует ветер: С - северный, СВ - северо-восточный, В - восточный, ЮВ - юго-восточный, Ю - южный, ЮЗ - юго-западный, З - западный, СЗ - северо-западный.
Видимость - горизонтальная дальность видимости в метрах или километрах. При видимости от 1 до 10 км при отсутствии осадков обычно наблюдается дымка, при ухудшении видимости до 1 км и менее - туман. В сухую погоду видимость может ухудшаться дымом, пылью или мглою.
Явления - указаны атмосферные явления, наблюдавшиеся в срок или в последний час перед сроком; фигурными скобками обозначены явления, наблюдавшиеся между сроками (за 1-3 часа до срока); квадратными скобками обозначены град или гололедные отложения с указанием их диаметра в мм.
Облачность - указаны через наклонную черту общая и нижняя облачность в баллах и высота нижней границы облаков в метрах; квадратными скобками обозначены формы облаков: Ci - перистые, Cs - перисто-слоистые, Cc - перисто-кучевые, Ac - высококучевые, As - высокослоистые, Sc - слоисто-кучевые, Ns - слоисто-дождевые, Cu - кучевые, Cb - кучево-дождевые. Подробнее классификацию облаков см. в Атласе облаков (PDF).
T - Температура воздуха - температура, измеренная на высоте 2 м над землей.
Td - Температура точки росы - температура, при понижении до которой содержащийся в воздухе водяной пар достигнет насыщения.
f - Относительная влажность воздуха - влажноcть воздуха, измеренная на высоте 2 м над землей.
Te - Эффективная температура - температура, которую ощущает одетый по сезону человек в тени. Характеристика душности погоды. При расчете учитывается влияние влажности воздуха и скорости ветра на теплоощущения человека.
Tes - Эффективная температура на солнце - температура, которую ощущает человек, с поправкой на солнечный нагрев. Характеристика знойности погоды. Зависит от высоты солнца над горизонтом, облачности и скорости ветра. Ночью, в пасмурную погоду, а также при ветре 12 м/с и более поправка равна нулю.
P - Атмосферное давление - приведенное к уровню моря атмосферное давление.
Po - Атмосферное давление - измеренное на уровне метеостанции атмосферное давление.
Tmin - Минимальная температура - минимум температуры воздуха на высоте 2 м над землей.
Tmax - Максимальная температура - максимум температуры воздуха на высоте 2 м над землей.
R - Количество осадков - Количество выпавших осадков за период времени, мм. При наведении курсора мыши на число - период времени, за который выпало указанное количество осадков.
R24 - Количество осадков - Количество выпавших осадков за 24 часа, мм.
S - Снежный покров - Высота снежного покрова, см. При наведении курсора мыши на число - состояние снежного покрова и степень покрытия местности в баллах.